Volver al catálogo

STARLINK-33643

ActivoComunicacionesVLEO
NORAD 63381·PAYLOAD·🇺🇸 United States

Lanzado Mar 26, 2025 desde Vandenberg Space Force Base

Loading…

Próximos Pases (próximas 24 horas)

TLE

ActualizadoSource: CelesTrak SupGP

Época: Sep 15, 2026, 02:20 UTC

1 63381C 25063U   26258.09770833 -.00026924  00000+0 -79535-3 0  2581
2 63381  53.1564 250.6539 0001304  99.9931  30.3771 15.34408578    12

Sigue STARLINK-33643 en tiempo real con AllMySat

Download on the App Store